Hourly Data Report for October 24, 2015

All times are specified in Local Standard Time (LST). Add 1 hour to adjust for Daylight Saving Time where and when it is observed.

CAPE DORSET A
NUNAVUT

64°13'49.000" N
76°31'30.000" W
48.20 m
2400637
71366
YTE

Download Data

Hourly Data (October 2015)
Hourly Data Report for October 24, 2015
Temp Definition
°C
Dew Point Temp Definition
°C
Rel Hum Definition
%
Wind Dir Definition
10's deg

Wind Spd Definition
km/h
Visibility Definition
km
Stn Press Definition
kPa
Hmdx Definition


Wind Chill Definition


Weather Definition


TIME
00:00 Legend Double Dagger -0.6 -1.7 92 17 24 16.1 99.15   -7 LegendNANA
01:00 Legend Double Dagger -0.8 -2.1 91 17 26 16.1 99.03   -7 LegendNANA
02:00 Legend Double Dagger -0.8 -1.9 92 17 22 16.1 98.86   -7 LegendNANA
03:00 Legend Double Dagger -1.0 -1.7 95 16 26 16.1 98.72   -7 Snow
04:00 Legend Double Dagger -1.0 -1.4 97 16 30 16.1 98.55   -8 Snow
05:00 Legend Double Dagger -1.0 -1.4 97 17 30 3.2 98.41   -8 Snow
06:00 Legend Double Dagger -1.0 -1.4 97 17 26 14.5 98.31   -7 Snow
07:00 Legend Double Dagger -0.8 -1.1 98 18 22 14.5 98.23   -7 Snow
08:00 Legend Double Dagger -0.7 -0.8 99 19 18 6.4 98.13   -6 Snow
09:00 Legend Double Dagger -0.6 -0.7 99 19 17 8.1 98.07   -6 Snow
10:00 Legend Double Dagger -0.4 -0.5 99 19 22 2.8 98.00   -6 Snow
11:00 Legend Double Dagger -0.2 -0.6 97 20 21 4.8 97.93   -6 Fog
12:00 Legend Double Dagger -0.3 -0.3 100 25 18 9.7 97.90   -5 Snow
13:00 Legend Double Dagger -0.6 -0.7 99 27 17 14.5 97.89   -6 Snow
14:00 Legend Double Dagger -2.4 -3.4 93 32 18 12.9 97.95   -8 Snow
15:00 Legend Double Dagger -4.4 -5.4 93 34 35 2.8 98.03   -13 Snow
16:00 Legend Double Dagger -4.9 -6.1 92 35 34 4.0 98.09   -13 Snow
17:00 Legend Double Dagger -5.7 -7.1 90 35 39 2.0 98.16   -15 Snow
18:00 Legend Double Dagger -6.0 -8.0 86 33 30 12.9 98.28   -14 LegendNANA
19:00 Legend Double Dagger -5.9 -8.0 85 33 32 16.1 98.39   -14 LegendNANA
20:00 Legend Double Dagger -6.9 -9.0 85 31 30 16.1 98.44   -15 LegendNANA
21:00 Legend Double Dagger -7.6 -10.9 77 30 32 16.1 98.50   -17 LegendNANA
22:00 Legend Double Dagger -8.0 -10.7 81 30 28 16.1 98.57   -17 LegendNANA
23:00 Legend Double Dagger -8.0 -11.4 77 30 26 16.1 98.61   -16 LegendNANA

Notes on Data Quality.

Legend

  • E = Estimated
  • M = Missing
  • NA = Not Available
  • ‡ = Partner data that is not subject to review by the National Climate Archives
Date modified: